Miscellaneous Local Product
Issued by NWS North Platte, NE

Home | Current Version | Previous Version | Text Only | Print | Product List | Glossary On
Versions: 1 2 3 4 5 6 7 8 9 10 11 12 13 14 15 16 17 18 19 20 21 22 23 24 25 26 27 28 29 30 31 32 33 34 35 36 37 38 39 40 41 42 43 44 45 46 47 48 49 50
000
AXUS43 KLBF 280910
MISLBF


WESTERN AND NORTH CENTRAL NEBRASKA HOURLY WEATHER ROUNDUP
NATIONAL WEATHER SERVICE NORTH PLATTE NE
400 AM CDT TUE JUL 28 2015

***STATIONS NOT REPORTING VARIABLES SUCH AS SKY/WEATHER OR
PRESSURE ARE PROVIDED BY THE NEBRASKA DEPARTMENT OF
ROADS...RAWS...AND APRS NETWORKS...AND ARE NOT UNDER
NATIONAL WEATHER SERVICE QUALITY CONTROL***

...OBSERVATIONS IN AND NEAR THE EASTERN PANHANDLE OF NEBRASKA...

CITY           SKY/WX    TMP DP  RH WIND       PRES   REMARKS
PINE RIDGE     CLEAR     59  54  83 W5        29.92R
CHADRON        CLEAR     59  48  67 W21G29    29.94R
ALLIANCE       CLEAR     61  48  62 NW15      29.94R
SIDNEY         CLEAR     65  46  50 NW18G25   29.97R
BIG SPRINGS      N/A     73  49  43 NW5         N/A
$$

...OBSERVATIONS IN NORTH CENTRAL NEBRASKA...

CITY           SKY/WX    TMP DP  RH WIND       PRES   REMARKS
VALENTINE      CLOUDY    67  63  87 W13       29.81R
THEDFORD       MOCLDY    68  64  86 NW6       29.81R
AINSWORTH      CLOUDY    70  64  83 CALM      29.75F
O`NEILL        CLOUDY    68  68  98 E14       29.74F
ORD            MOCLDY    76  68  76 CALM      29.75R
BROKEN BOW     PTCLDY    81  68  64 N6        29.76F
SPRINGVIEW       N/A     68  64  86 E5G14       N/A
CHAMBERS         N/A     76  69  78 CALM        N/A
EWING            N/A     75  69  82 E3          N/A
$$

...OBSERVATIONS IN SOUTHWEST NEBRASKA AND FAR NORTHEAST COLORADO...

CITY           SKY/WX    TMP DP  RH WIND       PRES   REMARKS
WRAY           FAIR      75  54  47 N18G28    29.87R
HOLYOKE        FAIR      73  48  40 N23G29    29.89R
IMPERIAL       CLEAR     73  64  73 NW15      29.81R
OGALLALA       CLEAR     73  58  57 NW16G23   29.84R
NORTH PLATTE   CLEAR     73  68  84 CALM      29.77R
MCCOOK         CLEAR     80  67  64 SW15G22   29.74R
LEXINGTON      PTCLDY    81  68  65 S13       29.73F
PAXTON           N/A     72  65  77 NW8         N/A
BRADY            N/A     77  69  76 CALM        N/A
CALLAWAY         N/A     76  71  86 NW6         N/A
$$

...NORTH PLATTE AREA...

CITY           SKY/WX    TMP DP  RH WIND       PRES   REMARKS
AIRPORT        CLEAR     73  68  84 CALM      29.77R
DOWNTOWN         N/A     77  70  80 CALM        N/A
SANDRIDGE        N/A     77  69  76 CALM        N/A
HILLCREST        N/A     77  69  77 CALM        N/A
$$

...SOME WEATHER OBSERVATIONS FROM AROUND THE REGION...

CITY           SKY/WX    TMP DP  RH WIND       PRES   REMARKS
DENVER         CLEAR     60  39  45 E8        30.02R
LARAMIE        CLEAR     51  27  39 N6        30.20S
CHEYENNE       CLEAR     59  29  31 NW15G26   30.10R
SCOTTSBLUFF    CLEAR     59  49  69 NW9       29.99R
RAPID CITY     CLEAR     56  49  77 NW14      29.87S
PIERRE         CLOUDY    67  65  93 W5        29.71R
WINNER         FAIR      67  64  90 NW8       29.75R
SIOUX FALLS    LGT RAIN  72  68  87 W7G22     29.77R
OMAHA          PTCLDY    76  72  87 SE16      29.79F
GRAND ISLAND   CLEAR     78  68  71 S15       29.74F
KANSAS CITY    CLEAR     76  73  91 SE6       29.88S
WICHITA        CLEAR     79  70  74 S10       29.86F
HAYS           CLEAR     79  63  57 S13       29.81S
LIBERAL        CLEAR     79  63  57 S17       29.88F
GOODLAND       PTCLDY    72  64  76 W10       29.86R
$$



USA.gov is the U.S. government's official web portal to all federal, state and local government web resources and services.